Cloud_Cover
99 14 26 100 100 100 100 97 81 100 100 100 100 100 100 100 100 100 100 100 100 100 76 100 100 100 100 100 100 93 59 38 69 82 40 5 5 5 8 35 7 5 5 11
98 66 93 100 99 88 90 100 89 100 100 100 100 100 100 100 100 100 100 100 100 100 100 70 90 100 100 100 100 100 100 99 97 92 90 31 5 24 31 17 53 56 100 14
100 60 100 93 94 93 100 99 100 100 100 100 98 62 100 100 100 100 100 100 100 100 100 100 100 100 100 100 100 100 100 100 100 100 99 89 99 100 100 100 100 100 100 74
100 100 89 89 92 100 100 100 100 100 100 97 54 1 72 100 100 100 100 100 100 100 100 100 100 100 100 100 100 100 100 100 100 100 100 100 100 100 100 100 100 100 100 100
100 100 100 90 100 100 99 100 100 100 100 92 5 3 98 100 100 100 100 100 100 100 100 100 100 100 100 100 99 100 100 63 15 5 5 8 78 100 100 100 100 100 100 100
100 100 100 48 98 100 100 100 100 69 42 37 10 56 27 100 100 100 100 100 100 100 100 100 82 79 100 100 51 5 6 37 5 5 5 5 5 99 100 100 100 100 100 21
100 100 100 100 100 100 96 100 100 100 74 5 22 5 92 37 100 100 100 100 100 100 100 100 100 99 32 46 73 7 4 1 1 3 5 5 5 46 100 100 100 96 51 58
100 100 100 100 100 100 100 100 100 100 52 5 5 3 71 81 100 100 100 100 100 100 99 65 79 100 22 6 5 5 5 5 0 1 5 5 5 6 71 77 86 98 99 100
100 100 100 100 100 100 100 95 92 100 52 9 4 4 68 100 100 100 100 100 100 100 100 100 100 100 99 97 100 82 28 7 5 5 5 5 3 4 5 5 5 14 29 83
100 100 100 100 100 100 100 100 100 85 99 84 0 3 97 100 100 100 100 100 100 100 100 100 100 100 100 93 49 64 73 73 43 27 5 5 7 66 10 5 2 4 5 5
100 100 100 100 96 100 100 100 100 100 100 74 6 3 34 100 100 100 100 92 100 100 100 100 100 100 100 100 100 100 86 65 57 5 5 79 91 54 48 11 5 12 37 48
100 100 100 100 97 77 97 68 100 100 54 63 41 16 85 100 100 97 91 93 13 22 66 82 100 100 100 100 100 100 95 96 71 38 79 93 22 38 32 9 13 86 100 100
100 100 100 99 99 32 18 97 100 94 100 99 53 6 100 22 5 23 91 6 5 42 37 21 81 100 79 86 99 100 100 96 87 95 98 86 91 99 100 100 100 100 100 98
100 100 100 100 100 100 100 100 100 100 95 6 13 4 99 44 5 5 1 4 5 3 5 9 100 100 100 94 98 100 100 100 100 100 98 100 100 100 100 100 100 100 100 100
100 100 100 100 100 100 100 100 100 100 5 97 5 5 97 100 45 4 5 5 4 4 5 5 5 5 8 41 74 69 10 23 96 86 52 47 70 96 100 99 100 100 100 100
100 100 100 100 100 100 100 100 100 84 64 99 6 5 55 100 13 4 5 5 0 0 5 4 2 5 5 5 6 15 23 93 100 100 100 100 100 100 100 100 100 100 100 100
100 100 100 100 100 100 100 100 100 100 100 100 100 100 100 52 100 58 12 5 5 5 1 4 0 0 0 2 5 5 5 5 6 8 23 49 41 25 33 88 100 100 100 100
99 100 100 99 100 100 100 100 100 100 100 100 100 100 88 19 10 5 5 53 13 5 5 5 4 5 5 5 4 5 5 5 5 5 6 49 72 51 71 82 77 100 100 100
100 100 100 100 100 100 95 96 100 100 100 100 100 100 100 100 30 3 92 68 5 5 5 7 5 5 21 54 88 69 42 75 74 54 53 58 68 67 64 75 75 64 97 100
100 100 100 100 100 100 6 31 98 100 100 100 100 78 70 91 51 38 97 96 34 5 5 5 5 1 4 10 5 5 5 5 6 6 6 5 12 93 67 73 100 100 100 100
100 100 100 100 100 97 74 99 81 33 30 75 62 52 6 9 6 2 2 4 12 5 19 12 9 12 25 15 40 64 77 98 94 96 100 100 75 93 96 95 100 100 100 100
100 100 100 100 100 96 47 5 31 17 5 2 1 4 5 2 2 3 4 0 1 2 12 21 90 93 88 37 72 49 60 100 100 99 100 98 69 94 99 100 100 100 100 100
100 100 100 100 86 95 69 6 5 4 1 0 0 0 0 0 0 0 0 0 0 0 5 5 51 100 100 100 100 100 99 99 100 95 98 100 100 100 100 98 100 100 100 100
28 98 100 100 95 98 5 0 0 0 0 0 0 0 0 0 0 0 0 0 5 5 5 5 5 5 81 100 100 100 100 100 100 100 100 100 100 99 100 100 100 100 100 100
100 100 100 36 44 5 4 2 0 0 0 0 0 0 0 0 0 0 4 5 5 5 5 5 5 5 24 62 87 100 100 100 100 100 100 100 100 100 100 100 100 100 100 100
97 17 0 0 0 0 0 0 0 0 0 0 0 2 0 0 2 3 5 5 5 5 5 5 5 10 63 100 100 100 100 100 100 100 100 100 100 100 100 100 100 100 100 100